AirNav   Air Wisconsin pilot careers
 
 404 users online  

2K6 Elk County Airport
Moline, Kansas, USA

GOING TO MOLINE?


FAA INFORMATION EFFECTIVE 06 DECEMBER 2018

Location

FAA Identifier: 2K6
Lat/Long: 37-22-51.3000N / 096-16-16.0000W
37-22.855000N / 096-16.266667W
37.3809167 / -96.2711111
(estimated)
Elevation: 1063 ft. / 324 m (estimated)
Variation: 06E (1985)
From city: 3 miles NE of MOLINE, KS
Time zone: UTC -6 (UTC -5 during Daylight Saving Time)
Zip code: 67345

Airport Operations

Airport use: Open to the public
Activation date: 12/1946
Control tower: no
ARTCC: KANSAS CITY CENTER
FSS: WICHITA FLIGHT SERVICE STATION
NOTAMs facility: ICT (NOTAM-D service available)
Attendance: UNATNDD
Wind indicator: yes
Segmented circle: no

Airport Communications

CTAF: 122.9

Nearby radio navigation aids

VOR radial/distance  VOR name  Freq  Var
BVOr332/35.0BARTLESVILLE VOR/DME117.9008E
CNUr240/35.5CHANUTE VOR/DME109.2005E

 
NDB name  Hdg/Dist  Freq  Var  ID
COFFEYVILLE292/37.621205ECFV -.-. ..-. ...-

Airport Services

Airframe service: NONE
Powerplant service: NONE
Bottled oxygen: NONE
Bulk oxygen: NONE

Runway Information

Runway 18/36

Dimensions: 2510 x 40 ft. / 765 x 12 m
Surface: asphalt, in good condition
Gradient: N.
Operational restrictions: RWY 18/36 HAS CENTERLINE MARKING ONLY
RUNWAY 18  RUNWAY 36
Latitude: 37-23.062255N37-22.649157N
Longitude: 096-16.251918W096-16.279925W
Elevation: 1063.0 ft.1053.0 ft.
Gradient: 0.4% UP
Traffic pattern: leftleft
Runway heading: 177 magnetic, 183 true357 magnetic, 003 true
Markings: NSTD, in good conditionNSTD, in good condition
Obstructions: 41 ft. tree, 1560 ft. from runway, 26 ft. right of centerline, 33:1 slope to clear
OVERGROWN GRASS WATERWAY 20 FT FM RY END. SMALL TREE 25 FT TALL, 115 FT RIGHT OF RWY.
32 ft. pole, 260 ft. from runway, 75 ft. right of centerline, 1:1 slope to clear
+15 FT ROAD AT THLD.

Airport Ownership and Management from official FAA records

Ownership: Publicly-owned
Owner: ELK COUNTY
COURTHOUSE
HOWARD, KS 67349
Phone 620-374-2490
Manager: BYRDEE MILLER
POST OFFICE BOX 623
HOWARD, KS 67349
Phone 620-374-3597

Airport Operational Statistics

Aircraft based on the field: 2
Single engine airplanes: 2
    
Aircraft operations: 10/year *
100% local general aviation
* for 12-month period ending 09 May 2017

Additional Remarks

WILDLIFE ON & INVOF ARPT.

Instrument Procedures

There are no published instrument procedures at 2K6.

Some nearby airports with instrument procedures:

KIDP - Independence Municipal Airport (27 nm SE)
13K - Lt. William M. Milliken Airport (28 nm N)
2K7 - Neodesha Municipal Airport (30 nm E)
KEQA - El Dorado/Captain Jack Thomas Memorial Airport (35 nm NW)
KPPF - Tri-City Airport (37 nm E)
 
Loc | Ops | Rwys | IFR | FBO | Links
Com | Nav | Svcs | Stats | Notes

Kansas City Aviation Department
 
Area around 2K6 (Elk County Airport)
 
Road maps at: MapQuest Bing Google
 
Aerial photo
WARNING: Photo may not be current or correct
Aerial photo of 2K6 (Elk County Airport)
Photo by Eve Cascella
Photo taken 22-Sep-2013
looking north.

Do you have a better or more recent aerial photo of Elk County Airport that you would like to share? If so, please send us your photo.

 
Sectional chart

 
Airport distance calculator
Flying to Elk County Airport? Find the distance to fly.

From to 2K6

Sunrise and sunset
Times for 13-Dec-2018
 Local
(UTC-6)
 Zulu
(UTC)
Morning civil twilight07:0313:03
Sunrise07:3213:32
Sunset17:0723:07
Evening civil twilight17:3623:36

Current date and time
Zulu (UTC)  13-Dec-2018 07:19:38
Local (UTC-6)  13-Dec-2018 01:19:38
 
METAR
KIDP 
27nm SE 
130655Z AUTO 14008KT 10SM SCT037 SCT045 10/09 A2976 RMK AO2 T01010087
KEQA 
35nm NW 
130655Z AUTO 13004KT 10SM OVC034 09/07 A2975 RMK AO2
KPPF 
37nm E 
130652Z AUTO 12003KT BKN016 OVC025 11/09 A2978 RMK AO2 SLP081 T01060089
KCFV 
38nm SE 
130652Z AUTO 12004KT 10SM OVC015 11/09 A2976 RMK AO2 SLP077 T01060089
KWLD 
39nm W 
130654Z AUTO 08004KT 9SM BKN033 08/07 A2974 RMK AO2 SLP069 T00830072
KBVO 
39nm S 
130653Z AUTO 00000KT 10SM OVC013 11/09 A2976 RMK AO2 SLP072 T01110089
KCNU 
41nm NE 
130701Z AUTO 09003KT 10SM OVC013 10/08 A2978 RMK AO2 T01000083
K3AU 
42nm NW 
130655Z AUTO 06003KT 10SM OVC036 07/06 A2975 RMK AO2
K1K1 
46nm NW 
130655Z AUTO 00000KT 10SM OVC034 07/05 A2975 RMK AO2 T00650050
KBEC 
49nm NW 
130655Z AUTO 03005KT 10SM OVC032 07/05 A2974 RMK AO2 T00680050
TAF
KBVO 
39nm S 
130537Z 1306/1406 15007KT P6SM BKN015 FM131000 10005KT 5SM BR BKN009 BKN012 TEMPO 1311/1315 05011KT 4SM -SHRA BR BKN006 FM131500 01011KT 4SM -SHRA BR OVC012 FM131800 36014G21KT 3SM -RA BR BKN008 OVC012 FM140000 35016G24KT P6SM VCSH BKN015
KCNU 
41nm NE 
130538Z 1306/1406 VRB04KT P6SM BKN015 OVC035 FM131100 VRB05KT 1SM -DZ BR OVC002 FM131500 35010KT 3SM RA BR OVC006 FM132100 35020G28KT 5SM -RA BR OVC011
NOTAMs
Click for the latest NOTAMs
NOTAMs are issued by the DoD/FAA and will open in a separate window not controlled by AirNav.

 

 
 

Would you like to see your business listed on this page?

 If your business provides an interesting product or service to pilots, flight crews, aircraft, or users of the Elk County Airport, you should consider listing it here.  To start the listing process, click on the button below
 
Add a business
 

Other Pages about Elk County Airport

Update a link
 
Copyright © AirNav, LLC. All rights reserved. Privacy Policy  Contact